Time,TemperatureF,DewpointF,PressureIn,WindDirection,WindDirectionDegrees,WindSpeedMPH,WindSpeedGustMPH,Humidity,HourlyPrecipIn,Conditions,Clouds,dailyrainin,SoftwareType,DateUTC
2013-02-20 00:01:00,30.0,26.0,29.56,West,277,17.0,21.0,85,0.00,,,0.37,,2013-02-20 08:01:00,
2013-02-20 00:11:00,30.0,26.0,29.56,West,277,17.0,21.0,85,0.00,,,0.37,,2013-02-20 08:11:00,
2013-02-20 00:21:00,30.0,24.0,29.56,West,281,12.0,20.0,78,0.00,,,0.37,,2013-02-20 08:21:00,
2013-02-20 00:31:00,30.0,23.0,29.57,WNW,285,8.0,16.0,76,0.00,,,0.37,,2013-02-20 08:31:00,
2013-02-20 00:41:00,30.0,23.0,29.57,WNW,285,8.0,16.0,76,0.00,,,0.37,,2013-02-20 08:41:00,
2013-02-20 00:52:00,30.0,25.0,29.57,West,267,7.0,14.0,81,0.00,,,0.37,,2013-02-20 08:52:00,
2013-02-20 01:01:00,30.0,26.0,29.56,WSW,250,17.0,23.0,84,0.00,,,0.37,,2013-02-20 09:01:00,
2013-02-20 01:11:00,30.0,26.0,29.56,WSW,250,17.0,23.0,84,0.00,,,0.37,,2013-02-20 09:11:00,
2013-02-20 01:21:00,29.0,25.0,29.54,WNW,303,15.0,23.0,84,0.00,,,0.37,,2013-02-20 09:21:00,
2013-02-20 01:31:00,29.0,24.0,29.54,West,270,12.0,25.0,82,0.00,,,0.37,,2013-02-20 09:31:00,
2013-02-20 01:41:00,29.0,24.0,29.54,West,270,12.0,25.0,82,0.00,,,0.37,,2013-02-20 09:41:00,
2013-02-20 01:51:00,29.0,24.0,29.54,West,279,10.0,25.0,82,0.00,,,0.37,,2013-02-20 09:51:00,
2013-02-20 02:01:00,29.0,24.0,29.53,WSW,252,15.0,22.0,81,0.00,,,0.37,,2013-02-20 10:01:00,
2013-02-20 02:12:00,29.0,24.0,29.53,WSW,252,15.0,22.0,81,0.00,,,0.37,,2013-02-20 10:12:00,
2013-02-20 02:21:00,29.0,24.0,29.53,WNW,296,12.0,25.0,81,0.00,,,0.37,,2013-02-20 10:21:00,
2013-02-20 02:31:00,28.0,23.0,29.54,WNW,286,11.0,20.0,80,0.00,,,0.37,,2013-02-20 10:31:00,
2013-02-20 02:41:00,28.0,23.0,29.54,WNW,286,11.0,20.0,80,0.00,,,0.37,,2013-02-20 10:41:00,
2013-02-20 02:51:00,28.0,23.0,29.53,WSW,240,10.0,19.0,82,0.00,,,0.37,,2013-02-20 10:51:00,
2013-02-20 03:01:00,28.0,23.0,29.53,WSW,254,12.0,23.0,81,0.00,,,0.37,,2013-02-20 11:01:00,
2013-02-20 03:11:00,28.0,23.0,29.53,WSW,245,15.0,24.0,81,0.00,,,0.37,,2013-02-20 11:11:00,
2013-02-20 03:21:00,28.0,23.0,29.53,WSW,245,15.0,24.0,81,0.00,,,0.37,,2013-02-20 11:21:00,
2013-02-20 03:31:00,28.0,23.0,29.53,WSW,257,11.0,26.0,82,0.00,,,0.37,,2013-02-20 11:31:00,
2013-02-20 03:41:00,28.0,23.0,29.53,WSW,257,11.0,26.0,82,0.00,,,0.37,,2013-02-20 11:41:00,
2013-02-20 03:52:00,28.0,24.0,29.53,West,274,9.0,23.0,84,0.00,,,0.37,,2013-02-20 11:52:00,
2013-02-20 04:01:00,28.0,23.0,29.53,West,259,10.0,16.0,81,0.00,,,0.37,,2013-02-20 12:01:00,
2013-02-20 04:11:00,28.0,23.0,29.53,West,259,10.0,16.0,81,0.00,,,0.37,,2013-02-20 12:11:00,
2013-02-20 04:21:00,28.0,23.0,29.54,WSW,254,9.0,21.0,82,0.00,,,0.37,,2013-02-20 12:21:00,
2013-02-20 04:31:00,28.0,24.0,29.56,West,268,11.0,18.0,84,0.00,,,0.37,,2013-02-20 12:31:00,
2013-02-20 04:41:00,28.0,24.0,29.56,West,268,11.0,18.0,84,0.00,,,0.37,,2013-02-20 12:41:00,
2013-02-20 04:52:00,27.0,23.0,29.56,West,267,15.0,20.0,84,0.00,,,0.37,,2013-02-20 12:52:00,
2013-02-20 05:01:00,27.0,23.0,29.56,WNW,282,13.0,23.0,84,0.00,,,0.37,,2013-02-20 13:01:00,
2013-02-20 05:11:00,27.0,23.0,29.56,WNW,282,13.0,23.0,84,0.00,,,0.37,,2013-02-20 13:11:00,
2013-02-20 05:22:00,28.0,24.0,29.58,West,263,14.0,20.0,84,0.00,,,0.37,,2013-02-20 13:22:00,
2013-02-20 05:31:00,28.0,23.0,29.58,West,277,14.0,36.0,82,0.00,,,0.37,,2013-02-20 13:31:00,
2013-02-20 05:42:00,28.0,23.0,29.58,West,277,14.0,36.0,82,0.00,,,0.37,,2013-02-20 13:42:00,
2013-02-20 05:51:00,28.0,23.0,29.57,West,271,23.0,31.0,82,0.00,,,0.37,,2013-02-20 13:51:00,
2013-02-20 06:01:00,28.0,24.0,29.57,West,279,25.0,35.0,83,0.00,,,0.37,,2013-02-20 14:01:00,
2013-02-20 06:11:00,28.0,24.0,29.57,West,279,25.0,35.0,83,0.00,,,0.37,,2013-02-20 14:11:00,
2013-02-20 06:21:00,28.0,23.0,29.57,WNW,295,22.0,37.0,82,0.00,,,0.37,,2013-02-20 14:21:00,
2013-02-20 06:32:00,29.0,23.0,29.58,WNW,290,26.0,40.0,79,0.00,,,0.37,,2013-02-20 14:32:00,
2013-02-20 06:42:00,29.0,23.0,29.58,WNW,290,26.0,40.0,79,0.00,,,0.37,,2013-02-20 14:42:00,
2013-02-20 06:52:00,29.0,23.0,29.60,WNW,299,25.0,38.0,78,0.00,,,0.37,,2013-02-20 14:52:00,
2013-02-20 07:01:00,29.0,23.0,29.60,WNW,293,29.0,37.0,77,0.00,,,0.37,,2013-02-20 15:01:00,
2013-02-20 07:11:00,29.0,23.0,29.60,WNW,293,29.0,37.0,77,0.00,,,0.37,,2013-02-20 15:11:00,
2013-02-20 07:22:00,29.0,22.0,29.61,WNW,302,22.0,35.0,76,0.00,,,0.37,,2013-02-20 15:22:00,
2013-02-20 07:31:00,29.0,22.0,29.61,WNW,303,21.0,34.0,75,0.00,,,0.37,,2013-02-20 15:31:00,
2013-02-20 07:41:00,29.0,22.0,29.61,WNW,303,21.0,34.0,75,0.00,,,0.37,,2013-02-20 15:41:00,
2013-02-20 07:52:00,30.0,23.0,29.62,WNW,288,23.0,37.0,75,0.00,,,0.37,,2013-02-20 15:52:00,
2013-02-20 08:01:00,30.0,23.0,29.63,WNW,300,27.0,40.0,75,0.00,,,0.37,,2013-02-20 16:01:00,
2013-02-20 08:11:00,30.0,23.0,29.63,WNW,300,27.0,40.0,75,0.00,,,0.37,,2013-02-20 16:11:00,
2013-02-20 08:21:00,30.0,23.0,29.65,WNW,286,22.0,44.0,75,0.00,,,0.37,,2013-02-20 16:21:00,
2013-02-20 08:32:00,31.0,24.0,29.66,West,271,22.0,32.0,74,0.00,,,0.37,,2013-02-20 16:32:00,
2013-02-20 08:41:00,31.0,24.0,29.66,West,271,22.0,32.0,74,0.00,,,0.37,,2013-02-20 16:41:00,
2013-02-20 08:52:00,31.0,23.0,29.68,NW,306,15.0,29.0,73,0.00,,,0.37,,2013-02-20 16:52:00,
2013-02-20 09:01:00,30.0,23.0,29.70,WNW,292,10.0,29.0,76,0.00,,,0.37,,2013-02-20 17:01:00,
2013-02-20 09:11:00,31.0,24.0,29.70,WNW,291,16.0,28.0,75,0.00,,,0.37,,2013-02-20 17:11:00,
2013-02-20 09:21:00,31.0,24.0,29.70,WNW,291,16.0,28.0,75,0.00,,,0.37,,2013-02-20 17:21:00,
2013-02-20 09:32:00,32.0,25.0,29.70,WNW,289,13.0,25.0,74,0.00,,,0.37,,2013-02-20 17:32:00,
2013-02-20 09:41:00,32.0,25.0,29.70,WNW,289,13.0,25.0,74,0.00,,,0.37,,2013-02-20 17:41:00,
2013-02-20 09:52:00,32.0,25.0,29.71,NW,304,18.0,25.0,75,0.00,,,0.37,,2013-02-20 17:52:00,
2013-02-20 10:02:00,32.0,25.0,29.73,WNW,299,14.0,21.0,76,0.00,,,0.37,,2013-02-20 18:02:00,
2013-02-20 10:11:00,32.0,25.0,29.73,WNW,299,14.0,21.0,76,0.00,,,0.37,,2013-02-20 18:11:00,
2013-02-20 10:21:00,32.0,25.0,29.72,WNW,299,17.0,29.0,76,0.00,,,0.37,,2013-02-20 18:21:00,
2013-02-20 10:31:00,32.0,25.0,29.74,NW,309,16.0,31.0,76,0.00,,,0.37,,2013-02-20 18:31:00,
2013-02-20 10:41:00,32.0,25.0,29.74,NW,309,16.0,31.0,76,0.00,,,0.37,,2013-02-20 18:41:00,
2013-02-20 10:52:00,33.0,26.0,29.73,NW,315,19.0,33.0,75,0.00,,,0.37,,2013-02-20 18:52:00,
2013-02-20 11:01:00,34.0,26.0,29.74,West,265,13.0,30.0,72,0.00,,,0.37,,2013-02-20 19:01:00,
2013-02-20 11:11:00,34.0,26.0,29.74,West,265,13.0,30.0,72,0.00,,,0.37,,2013-02-20 19:11:00,
2013-02-20 11:21:00,35.0,26.0,29.74,West,274,16.0,29.0,68,0.00,,,0.37,,2013-02-20 19:21:00,
2013-02-20 11:31:00,36.0,26.0,29.74,West,275,14.0,21.0,67,0.00,,,0.37,,2013-02-20 19:31:00,
2013-02-20 11:41:00,36.0,26.0,29.74,West,275,14.0,21.0,67,0.00,,,0.37,,2013-02-20 19:41:00,
2013-02-20 11:52:00,37.0,26.0,29.74,WNW,283,12.0,20.0,64,0.01,,,0.38,,2013-02-20 19:52:00,
2013-02-20 12:01:00,38.0,26.0,29.76,WSW,250,11.0,16.0,62,0.01,,,0.38,,2013-02-20 20:01:00,
2013-02-20 12:11:00,38.0,26.0,29.78,NW,326,11.0,21.0,61,0.01,,,0.38,,2013-02-20 20:11:00,
2013-02-20 12:21:00,38.0,26.0,29.78,NW,326,11.0,21.0,61,0.01,,,0.38,,2013-02-20 20:21:00,
2013-02-20 12:31:00,38.0,25.0,29.75,WNW,290,9.0,20.0,59,0.01,,,0.38,,2013-02-20 20:31:00,
2013-02-20 12:41:00,38.0,26.0,29.75,WNW,301,14.0,23.0,61,0.00,,,0.38,,2013-02-20 20:41:00,
2013-02-20 12:51:00,38.0,26.0,29.75,WNW,301,14.0,23.0,61,0.00,,,0.38,,2013-02-20 20:51:00,
2013-02-20 13:01:00,39.0,26.0,29.77,NW,307,12.0,23.0,60,0.00,,,0.38,,2013-02-20 21:01:00,
2013-02-20 13:11:00,39.0,26.0,29.76,WNW,298,14.0,23.0,60,0.00,,,0.38,,2013-02-20 21:11:00,
2013-02-20 13:21:00,39.0,26.0,29.76,WNW,298,14.0,23.0,60,0.00,,,0.38,,2013-02-20 21:21:00,
2013-02-20 13:31:00,39.0,25.0,29.76,West,277,17.0,25.0,58,0.00,,,0.32,,2013-02-20 21:31:00,
2013-02-20 13:41:00,39.0,25.0,29.76,West,277,17.0,25.0,58,0.00,,,0.32,,2013-02-20 21:41:00,
2013-02-20 13:52:00,39.0,25.0,29.76,WNW,295,15.0,28.0,58,0.00,,,0.32,,2013-02-20 21:52:00,
2013-02-20 14:01:00,40.0,25.0,29.76,WNW,294,18.0,30.0,54,0.00,,,0.32,,2013-02-20 22:01:00,
2013-02-20 14:11:00,40.0,25.0,29.76,WNW,294,18.0,30.0,54,0.00,,,0.32,,2013-02-20 22:11:00,
2013-02-20 14:21:00,41.0,24.0,29.75,WNW,300,14.0,24.0,51,0.00,,,0.32,,2013-02-20 22:21:00,
2013-02-20 14:31:00,41.0,24.0,29.77,West,273,16.0,24.0,51,0.00,,,0.27,,2013-02-20 22:31:00,
2013-02-20 14:41:00,41.0,24.0,29.77,West,273,16.0,24.0,51,0.00,,,0.27,,2013-02-20 22:41:00,
2013-02-20 14:51:00,41.0,24.0,29.78,NW,317,7.0,20.0,51,0.00,,,0.27,,2013-02-20 22:51:00,
2013-02-20 15:01:00,40.0,25.0,29.78,WSW,256,8.0,19.0,54,0.00,,,0.27,,2013-02-20 23:01:00,
2013-02-20 15:11:00,40.0,25.0,29.78,WNW,294,15.0,22.0,54,0.00,,,0.27,,2013-02-20 23:11:00,
2013-02-20 15:21:00,40.0,25.0,29.78,WNW,294,15.0,22.0,54,0.00,,,0.27,,2013-02-20 23:21:00,
2013-02-20 15:31:00,40.0,24.0,29.78,WNW,284,16.0,30.0,52,0.00,,,0.16,,2013-02-20 23:31:00,
2013-02-20 15:42:00,40.0,24.0,29.78,WNW,284,16.0,30.0,52,0.00,,,0.16,,2013-02-20 23:42:00,
2013-02-20 15:52:00,40.0,22.0,29.78,West,266,20.0,31.0,49,0.00,,,0.16,,2013-02-20 23:52:00,
2013-02-20 16:02:00,40.0,23.0,29.80,West,274,14.0,29.0,51,0.00,,,0.16,,2013-02-21 00:02:00,
2013-02-20 16:11:00,40.0,23.0,29.80,West,274,14.0,29.0,51,0.00,,,0.16,,2013-02-21 00:11:00,
2013-02-20 16:21:00,38.0,24.0,29.78,WNW,293,17.0,39.0,57,0.00,,,0.16,,2013-02-21 00:21:00,
2013-02-20 16:31:00,37.0,23.0,29.77,West,267,23.0,37.0,57,0.00,,,0.16,,2013-02-21 00:31:00,
2013-02-20 16:41:00,37.0,23.0,29.77,West,267,23.0,37.0,57,0.00,,,0.16,,2013-02-21 00:41:00,
2013-02-20 16:52:00,37.0,23.0,29.78,WNW,285,18.0,35.0,57,0.00,,,0.16,,2013-02-21 00:52:00,
2013-02-20 17:01:00,36.0,23.0,29.79,West,267,26.0,34.0,59,0.00,,,0.16,,2013-02-21 01:01:00,
2013-02-20 17:11:00,36.0,23.0,29.79,West,267,26.0,34.0,59,0.00,,,0.16,,2013-02-21 01:11:00,
2013-02-20 17:21:00,36.0,24.0,29.79,WNW,301,24.0,34.0,61,0.00,,,0.16,,2013-02-21 01:21:00,
2013-02-20 17:31:00,35.0,23.0,29.81,WNW,289,27.0,40.0,62,0.00,,,0.16,,2013-02-21 01:31:00,
2013-02-20 17:41:00,35.0,23.0,29.81,WNW,289,27.0,40.0,62,0.00,,,0.16,,2013-02-21 01:41:00,
2013-02-20 17:52:00,34.0,22.0,29.81,West,278,26.0,38.0,62,0.00,,,0.16,,2013-02-21 01:52:00,
2013-02-20 18:01:00,35.0,23.0,29.80,NW,315,28.0,38.0,61,0.00,,,0.16,,2013-02-21 02:01:00,
2013-02-20 18:11:00,35.0,23.0,29.80,NW,315,28.0,38.0,61,0.00,,,0.16,,2013-02-21 02:11:00,
2013-02-20 18:21:00,35.0,23.0,29.82,NW,306,26.0,38.0,61,0.00,,,0.16,,2013-02-21 02:21:00,
2013-02-20 18:32:00,35.0,23.0,29.82,WNW,287,21.0,39.0,62,0.00,,,0.16,,2013-02-21 02:32:00,
2013-02-20 18:42:00,35.0,23.0,29.82,WNW,287,21.0,39.0,62,0.00,,,0.16,,2013-02-21 02:42:00,
2013-02-20 18:51:00,35.0,23.0,29.82,WNW,287,21.0,39.0,62,0.00,,,0.16,,2013-02-21 02:51:00,
2013-02-20 19:01:00,35.0,24.0,29.83,NW,311,18.0,33.0,64,0.00,,,0.16,,2013-02-21 03:01:00,
2013-02-20 19:11:00,35.0,24.0,29.83,NW,311,18.0,33.0,64,0.00,,,0.16,,2013-02-21 03:11:00,
2013-02-20 19:21:00,35.0,25.0,29.83,WNW,296,20.0,33.0,66,0.00,,,0.16,,2013-02-21 03:21:00,
2013-02-20 19:31:00,35.0,26.0,29.83,WNW,286,24.0,33.0,68,0.00,,,0.12,,2013-02-21 03:31:00,
2013-02-20 19:41:00,35.0,26.0,29.83,WNW,286,24.0,33.0,68,0.00,,,0.12,,2013-02-21 03:41:00,
2013-02-20 19:51:00,35.0,25.0,29.82,NW,309,27.0,36.0,67,0.00,,,0.12,,2013-02-21 03:51:00,
2013-02-20 20:01:00,35.0,25.0,29.82,WNW,289,25.0,44.0,67,0.00,,,0.12,,2013-02-21 04:01:00,
2013-02-20 20:11:00,35.0,25.0,29.82,WNW,289,25.0,44.0,67,0.00,,,0.12,,2013-02-21 04:11:00,
2013-02-20 20:21:00,36.0,25.0,29.83,NW,304,20.0,41.0,65,0.00,,,0.12,,2013-02-21 04:21:00,
2013-02-20 20:31:00,36.0,25.0,29.84,WNW,298,21.0,31.0,64,0.00,,,0.05,,2013-02-21 04:31:00,
2013-02-20 20:41:00,36.0,25.0,29.84,WNW,298,21.0,31.0,64,0.00,,,0.05,,2013-02-21 04:41:00,
2013-02-20 20:52:00,36.0,25.0,29.84,West,275,17.0,28.0,64,0.00,,,0.05,,2013-02-21 04:52:00,
2013-02-20 21:02:00,36.0,25.0,29.85,WNW,291,7.0,25.0,63,0.00,,,0.05,,2013-02-21 05:02:00,
2013-02-20 21:11:00,36.0,25.0,29.85,WNW,291,7.0,25.0,63,0.00,,,0.05,,2013-02-21 05:11:00,
2013-02-20 21:21:00,36.0,25.0,29.86,SW,216,9.0,13.0,65,0.00,,,0.05,,2013-02-21 05:21:00,
2013-02-20 21:32:00,36.0,26.0,29.88,WSW,247,10.0,16.0,66,0.00,,,0.02,,2013-02-21 05:32:00,
2013-02-20 21:42:00,36.0,26.0,29.88,WSW,247,10.0,16.0,66,0.00,,,0.02,,2013-02-21 05:42:00,
2013-02-20 21:56:00,36.0,26.0,29.88,West,271,8.0,19.0,67,0.00,,,0.02,,2013-02-21 05:56:00,
2013-02-20 22:01:00,36.0,26.0,29.89,West,267,10.0,14.0,66,0.00,,,0.02,,2013-02-21 06:01:00,
2013-02-20 22:10:00,36.0,26.0,29.89,West,267,10.0,14.0,66,0.00,,,0.02,,2013-02-21 06:10:00,
2013-02-20 22:21:00,36.0,24.0,29.88,West,275,19.0,25.0,62,0.00,,,0.02,,2013-02-21 06:21:00,
2013-02-20 22:31:00,36.0,25.0,29.86,West,275,19.0,24.0,65,0.00,,,0.01,,2013-02-21 06:31:00,
2013-02-20 22:41:00,36.0,25.0,29.86,West,275,19.0,24.0,65,0.00,,,0.01,,2013-02-21 06:41:00,
2013-02-20 22:51:00,36.0,25.0,29.86,WSW,252,18.0,26.0,63,0.00,,,0.01,,2013-02-21 06:51:00,
2013-02-20 23:01:00,36.0,24.0,29.86,WNW,290,17.0,26.0,62,0.00,,,0.01,,2013-02-21 07:01:00,
2013-02-20 23:11:00,36.0,24.0,29.86,WNW,288,12.0,19.0,62,0.00,,,0.01,,2013-02-21 07:11:00,
2013-02-20 23:21:00,36.0,24.0,29.86,WNW,288,12.0,19.0,62,0.00,,,0.01,,2013-02-21 07:21:00,
2013-02-20 23:31:00,36.0,23.0,29.86,WNW,288,14.0,20.0,60,0.00,,,0.01,,2013-02-21 07:31:00,
2013-02-20 23:41:00,36.0,23.0,29.88,WSW,244,12.0,23.0,58,0.00,,,0.01,,2013-02-21 07:41:00,
2013-02-20 23:52:00,36.0,23.0,29.88,WSW,244,12.0,23.0,58,0.00,,,0.01,,2013-02-21 07:52:00,